[[{"header":{"parameterUnit":"m.s-1","parameterCategory":1,"la1":30.2992,"la2":30.254,"lo1":-89.0895,"lo2":-89.0443,"dy":0.0025,"dx":0.0025,"nx":19,"ny":19,"refTime":"2026-03-21T09:00:00:Z","depth":0,"parameterNumber":2,"parameterNumberName":"U-component_of_WINDS"},"data":[0,0,0,3.1753,3.1756,3.1902,3.1903,3.2115,3.2118,0,0,0,0,0,0,0,0,0,0,0,3.1725,3.1727,3.1752,3.1756,3.1902,3.1903,3.2115,3.2118,0,0,0,0,0,0,0,0,0,0,0,3.1724,3.1726,3.1729,3.1757,3.1902,3.1903,3.2115,3.1995,0,0,0,0,0,0,0,0,0,0,3.1849,3.1838,3.1726,3.1729,3.1758,3.1902,3.1903,3.1989,3.2003,3.206,0,3.2115,0,3.212,3.2133,3.2134,0,0,0,3.1745,3.1827,3.1852,3.1729,3.1759,3.1902,3.1833,3.1996,3.2012,3.2078,3.2118,3.2125,3.2123,3.2135,3.2136,3.2503,3.2505,0,0,3.1737,3.176,3.1842,3.1863,3.1842,3.1829,3.1838,3.2005,3.205,3.2119,3.213,3.2127,3.2137,3.2138,3.2501,3.2503,0,0,0,3.1721,3.1755,3.1775,3.1855,3.1879,3.1833,3.1844,3.2043,3.2047,3.2132,3.2129,3.2138,3.2141,3.2498,3.2501,3.2633,0,0,0,3.1716,3.1745,3.1772,3.1788,3.1877,3.1963,3.1878,3.2036,3.2054,3.2128,3.2138,3.2143,3.2496,3.25,3.2624,3.2692,0,0,0,3.171,3.1744,3.1771,3.1788,3.1852,3.196,3.1974,3.2039,3.2053,3.2134,3.2144,3.2494,3.2499,3.2616,3.2679,3.2794,0,0,0,3.171,3.1888,3.1773,3.197,3.1851,3.204,3.1972,3.2112,3.2198,3.2139,3.2496,3.2501,3.2614,3.2671,3.2786,3.2895,3.2943,0,0,3.1947,3.1917,3.2031,3.1933,3.2148,3.2016,3.225,3.2308,3.2295,3.2434,3.2443,3.2627,3.2678,3.2792,3.3203,3.3241,0,0,0,3.2113,3.2195,3.2247,3.2329,3.2376,3.2422,3.244,3.2461,3.2577,3.2371,3.2699,3.2729,3.2795,3.2846,3.2879,3.2933,3.2526,3.2525,3.2525,3.2481,3.2454,3.264,3.263,3.271,3.2726,3.2788,3.2819,3.277,3.2848,3.2889,3.3141,3.3202,3.3226,3.3283,3.2945,3.2945,3.2946,3.2946,3.2824,3.2936,3.2864,3.3018,3.2988,3.3118,3.314,3.31,3.3216,3.3108,3.3165,3.305,3.3268,3.3317,3.2956,3.2954,3.2953,3.2952,3.2951,3.3062,3.311,3.3131,3.3245,3.3335,3.3319,3.3433,3.3402,3.3374,3.343,3.3469,3.3467,3.346,3.3451,3.3452,3.3452,3.3453,3.3454,3.3454,3.33,3.3319,3.3419,3.3482,3.3529,3.3587,3.3603,3.3649,3.3691,3.3659,3.3659,3.3602,3.3295,3.3218,3.3468,3.3465,3.3464,3.3462,3.3461,3.3657,3.357,3.3725,3.3772,3.3842,3.3933,3.3891,3.3986,3.4019,3.4076,3.4005,3.3783,3.3751,3.3725,3.3661,3.4011,3.4011,3.4011,3.4011,3.3857,3.3837,3.3986,3.4063,3.4135,3.4112,3.4286,3.4299,3.43,3.4319,3.4263,3.4176,3.4151,3.4134,3.4099,3.4039,3.4476,3.4477,3.4477,3.4074,3.4059,3.4214,3.4212,3.4265,3.431,3.4472,3.4563,3.4546,3.4495,3.4332,3.4312,3.4171,3.4127,3.4074,3.402,3.3909,0,0]},{"header":{"parameterUnit":"m.s-1","parameterCategory":1,"la1":30.2992,"la2":30.254,"lo1":-89.0895,"lo2":-89.0443,"dy":0.0025,"dx":0.0025,"nx":19,"ny":19,"refTime":"2026-03-21T09:00:00:Z","depth":0,"parameterNumber":3,"parameterNumberName":"V-component_of_WINDS"},"data":[0,0,0,5.6348,5.6353,5.6574,5.6574,5.6852,5.6854,0,0,0,0,0,0,0,0,0,0,0,5.6285,5.6287,5.6348,5.6354,5.6573,5.6574,5.6851,5.6854,0,0,0,0,0,0,0,0,0,0,0,5.6284,5.6286,5.6289,5.6354,5.6573,5.6575,5.6851,5.6685,0,0,0,0,0,0,0,0,0,0,5.6471,5.6415,5.6286,5.6289,5.6356,5.6573,5.6575,5.6677,5.6695,5.6751,0,5.6805,0,5.6834,5.6873,5.6874,0,0,0,5.6351,5.64,5.6459,5.6289,5.6358,5.6573,5.6474,5.6687,5.6708,5.6776,5.6809,5.682,5.6839,5.6875,5.6876,5.7215,5.7217,0,0,5.6339,5.6324,5.6444,5.6472,5.6443,5.6467,5.648,5.67,5.6734,5.681,5.6826,5.6844,5.6877,5.6879,5.7214,5.7216,0,0,0,5.6306,5.6316,5.6369,5.6461,5.6501,5.6473,5.6489,5.6724,5.6743,5.6829,5.6847,5.6878,5.6882,5.7212,5.7214,5.7284,0,0,0,5.6298,5.6296,5.6364,5.6357,5.6497,5.6616,5.6508,5.6728,5.6753,5.6845,5.6878,5.6884,5.721,5.7213,5.7279,5.7319,0,0,0,5.627,5.6293,5.6326,5.6355,5.645,5.6613,5.6644,5.6734,5.6764,5.6874,5.6885,5.7209,5.7213,5.7273,5.7311,5.7404,0,0,0,5.6234,5.6384,5.6327,5.6501,5.6448,5.6656,5.6643,5.6798,5.6901,5.688,5.721,5.7214,5.7272,5.7306,5.7398,5.7479,5.7512,0,0,5.6414,5.6405,5.6508,5.6464,5.6679,5.6624,5.6847,5.6954,5.6976,5.7133,5.7141,5.728,5.731,5.7403,5.7702,5.7728,0,0,0,5.656,5.6635,5.6695,5.6794,5.6881,5.6957,5.7032,5.7071,5.7205,5.7055,5.734,5.7358,5.7413,5.7452,5.7474,5.7521,5.7232,5.7232,5.7231,5.6794,5.6817,5.6989,5.7038,5.7133,5.7209,5.7287,5.7352,5.7345,5.7412,5.7458,5.7638,5.7683,5.77,5.7749,5.7503,5.7504,5.7504,5.7504,5.706,5.7167,5.7157,5.732,5.7341,5.7477,5.7554,5.7544,5.7671,5.7605,5.7654,5.7579,5.7728,5.7772,5.751,5.7509,5.7508,5.7508,5.7507,5.7214,5.727,5.7317,5.7462,5.757,5.7613,5.7736,5.775,5.7764,5.7813,5.7863,5.7862,5.7862,5.7836,5.7837,5.7838,5.7838,5.7839,5.7839,5.7356,5.7407,5.7511,5.7616,5.7681,5.7767,5.7843,5.7906,5.7979,5.7979,5.798,5.7965,5.774,5.7682,5.7849,5.7847,5.7846,5.7845,5.7844,5.7616,5.7559,5.772,5.7785,5.7908,5.8013,5.8031,5.8158,5.8211,5.8271,5.8246,5.8077,5.8067,5.805,5.8002,5.8242,5.8242,5.8242,5.8242,5.7745,5.7743,5.791,5.8013,5.8115,5.8147,5.8324,5.8383,5.8435,5.8469,5.8436,5.8375,5.8356,5.8357,5.8333,5.8289,5.8596,5.8596,5.8597,5.7906,5.7913,5.8063,5.8117,5.8214,5.8296,5.8462,5.8577,5.8624,5.8611,5.8495,5.848,5.8381,5.8348,5.8332,5.8294,5.8213,0,0]}]]